Location: Heilbronn
(49.1548°N, 9.2780°E)
Time: 08:18:40
(UTC+01:00)

ISS - Pass Details

Date: 13 November 2017
Orbit: 402 x 407 km, 51.6° (Epoch: 23 November)

Event Time Altitude Azimuth Distance (km) Brightness Sun altitude
Exits shadow 05:02:22 37° 84° (E) 647 -2.3 -24.0°
Drops below altitude 10° 05:04:30 10° 97° (E) 1,455 0.1 -23.7°
Sets 05:06:35 0° 100° (E) 2,313 1.4 -23.3°
